Location: Houston
(29.7630°N, 95.3630°W)
Time: 07:17:33
(UTC-06:00)

ISS - All Passes

Search period start: 21 January 2017 00:00
Search period end: 31 January 2017 00:00
Orbit: 399 x 410 km, 51.6° (Epoch: 21 January)

Date Brightness Start Highest point End Pass type
(mag) Time Alt. Az. Time Alt. Az. Time Alt. Az.
21 Jan - 04:47:48 10° N 04:50:10 18° NE 04:52:32 10° E visible
21 Jan - 06:23:50 10° WNW 06:26:38 27° SW 06:29:26 10° S visible
21 Jan - 21:22:36 10° WSW 21:25:46 50° NW 21:28:57 10° NNE night (unlit)
22 Jan - 03:57:12 10° NNE 03:57:44 10° NNE 03:58:16 10° NE night (unlit)
22 Jan - 05:31:17 10° NW 05:34:30 67° SW 05:37:42 10° SE visible
22 Jan - 20:30:20 10° SW 20:33:33 64° SE 20:36:47 10° NE visible
22 Jan - 22:09:32 10° NW 22:10:18 11° NW 22:11:05 10° NNW night (unlit)
23 Jan - 04:39:07 10° NNW 04:42:17 48° NE 04:45:25 10° ESE visible
23 Jan - 19:38:37 10° S 19:41:24 26° SE 19:44:11 10° ENE visible
23 Jan - 21:15:25 10° W 21:17:51 19° NW 21:20:16 10° N night (unlit)
24 Jan - 03:47:17 10° NNW 03:49:56 23° NE 03:52:36 10° E night (unlit)
24 Jan - 05:23:49 10° WNW 05:26:18 20° SW 05:28:45 10° S visible
24 Jan - 18:48:01 10° SSE 18:49:18 12° SE 18:50:36 10° ESE visible
24 Jan - 20:22:24 10° WSW 20:25:29 38° NW 20:28:32 10° NNE visible
25 Jan - 02:55:59 10° N 02:57:30 13° NE 02:59:01 10° ENE night (unlit)
25 Jan - 04:31:01 10° NW 04:34:09 47° SW 04:37:16 10° SSE night (unlit)
25 Jan - 19:29:55 10° SW 19:33:11 89° SE 19:36:26 10° NE visible
26 Jan - 03:38:41 10° NW 03:41:55 67° NE 03:45:08 10° SE night (unlit)
26 Jan - 18:37:57 10° SSW 18:40:58 35° SE 18:43:59 10° ENE visible
26 Jan - 20:15:28 10° WNW 20:17:31 15° NW 20:19:35 10° N visible
27 Jan - 02:46:42 10° NNW 02:49:35 29° NE 02:52:28 10° ESE night (unlit)
27 Jan - 04:23:50 10° W 04:25:50 15° SW 04:27:50 10° SSW night (unlit)
27 Jan - 17:46:45 10° SSE 17:48:48 16° SE 17:50:53 10° E daylight
27 Jan - 19:22:10 10° WSW 19:25:04 29° NW 19:27:59 10° NNE visible
28 Jan - 01:55:06 10° N 01:57:08 15° NE 01:59:10 10° ENE night (unlit)
28 Jan - 03:30:41 10° WNW 03:33:41 34° SW 03:36:38 10° SSE night (unlit)
28 Jan - 18:29:28 10° SW 18:32:43 66° NW 18:35:57 10° NE visible
29 Jan - 02:38:11 10° NW 02:41:26 88° SW 02:44:40 10° SE night (unlit)
29 Jan - 17:37:16 10° SSW 17:40:25 48° SE 17:43:35 10° NE daylight
29 Jan - 19:15:32 10° WNW 19:17:05 13° NW 19:18:38 10° N visible
30 Jan - 01:46:02 10° NNW 01:49:06 38° NE 01:52:08 10° ESE night (unlit)
30 Jan - 03:24:04 10° WSW 03:25:14 12° SW 03:26:26 10° SSW night (unlit)
30 Jan - 16:45:41 10° S 16:48:13 21° SE 16:50:44 10° ENE daylight
30 Jan - 18:21:52 10° W 18:24:34 23° NW 18:27:16 10° NNE visible
